Weather History for Kodiak, AK

Change the Weather History Date:

Tuesday, February 26, 2013

  Actual Average Record
Temperature  
Mean Temperature 37 °F 32 °F  
Max Temperature 40 °F 36 °F 46 °F (1985)
Min Temperature 34 °F 27 °F -6 °F (1986)
Degree Days  
Heating Degree Days 28 34  
Month to date heating degree days 838 893  
Since 1 July heating degree days 5856 5807  
Cooling Degree Days 0    
Month to date cooling degree days 0  
Year to date cooling degree days 0  
Moisture  
Dew Point 34 °F    
Average Humidity 0    
Maximum Humidity 0    
Minimum Humidity 0    
Precipitation  
Precipitation 0.55 in 0.21 in 2.51 in (2014)
Month to date precipitation 6.59 5.72  
Year to date precipitation 16.12 14.01  
Snow  
Snow T in 0.50 in 4.30 in (2005)
Month to date snowfall 18.5 14.1  
Since 1 July snowfall 47.9 48.4  
Snow Depth 3.00 in    
Sea Level Pressure  
Sea Level Pressure 29.14 in    
Wind  
Wind Speed 12 mph (NNE)    
Max Wind Speed 37 mph    
Max Gust Speed 46 mph    
Visibility 8 miles    
Events Rain , Snow    
T = Trace of Precipitation, MM = Missing Value Source: NWS Daily Summary

Daily Weather History Graph

Daily Weather History Graph

Search for Another Location

Airport:

Trip Planner

Search our weather history database for the weather conditions in past years. The results will help you decide how hot, cold, wet, or windy it might be!

Date:

Astronomy

Feb. 26, 2013 Rise Set
Actual Time 8:10 AM AKST 6:35 PM AKST
Civil Twilight 7:31 AM AKST 7:15 PM AKST
Nautical Twilight 6:46 AM AKST 8:00 PM AKST
Astronomical Twilight 6:01 AM AKST 8:45 PM AKST
Moon 8:33 PM AKST 7:56 AM AKST
Length of Visible Light 11h 43m
Length of Day
10h 24m
Full, 99% of the Moon is Illuminated
Feb 26
Full
Mar 4
Last Quarter
Mar 11
New
Mar 19
First Quarter
Mar 27
Full

Hourly Weather History & Observations

Time (AKST) Temp. Windchill Dew Point Humidity Pressure Visibility Wind Dir Wind Speed Gust Speed Precip Events Conditions
12:53 AM 37.0 °F 24.5 °F 34.0 °F 89% 29.18 in 4.0 mi NE 29.9 mph 40.3 mph 0.07 in Rain , Snow Light Rain
1:53 AM 37.0 °F 25.1 °F 35.1 °F 93% 29.18 in 5.0 mi NNE 26.5 mph 33.4 mph 0.07 in Rain , Snow Light Rain
2:53 AM 37.0 °F 25.9 °F 35.1 °F 93% 29.18 in 5.0 mi NE 23.0 mph 29.9 mph 0.04 in Rain , Snow Light Rain
3:53 AM 37.0 °F 24.7 °F 35.1 °F 93% 29.17 in 5.0 mi NNE 28.8 mph 36.8 mph 0.04 in Rain , Snow Light Rain
4:53 AM 37.9 °F 26.8 °F 35.1 °F 89% 29.15 in 6.0 mi NNE 24.2 mph 34.5 mph 0.04 in Rain , Snow Light Rain
5:42 AM 37.4 °F 25.6 °F 33.8 °F 87% 29.12 in 3.0 mi NNE 26.5 mph 43.7 mph 0.05 in Rain , Snow Light Rain
5:53 AM 36.0 °F 26.0 °F 34.0 °F 93% 29.12 in 4.0 mi North 17.3 mph 25.3 mph 0.09 in Rain , Snow Light Rain
6:53 AM 37.9 °F 28.2 °F 35.1 °F 89% 29.13 in 9.0 mi ENE 18.4 mph - 0.07 in Rain Light Rain
7:53 AM 37.0 °F 28.5 °F 35.1 °F 93% 29.16 in 10.0 mi ENE 13.8 mph - 0.00 in   Overcast
8:53 AM 36.0 °F 28.0 °F 34.0 °F 93% 29.17 in 6.0 mi NE 11.5 mph 19.6 mph 0.01 in Rain Light Rain
9:53 AM 37.0 °F 28.9 °F 35.1 °F 93% 29.20 in 10.0 mi NE 12.7 mph - 0.00 in   Mostly Cloudy
10:29 AM 37.4 °F 31.4 °F 35.6 °F 93% 29.19 in 9.0 mi NE 8.1 mph - N/A   Mostly Cloudy
10:53 AM 37.9 °F 30.5 °F 35.1 °F 89% 29.19 in 9.0 mi NE 11.5 mph - N/A   Mostly Cloudy
11:53 AM 39.0 °F 34.0 °F 35.1 °F 86% 29.18 in 9.0 mi ENE 6.9 mph - N/A   Scattered Clouds
12:53 PM 39.0 °F 32.8 °F 35.1 °F 86% 29.18 in 10.0 mi North 9.2 mph - N/A   Mostly Cloudy
12:55 PM 39.2 °F 33.6 °F 35.6 °F 87% 29.18 in 10.0 mi North 8.1 mph - N/A   Overcast
1:53 PM 37.9 °F 33.5 °F 34.0 °F 86% 29.16 in 10.0 mi North 5.8 mph - 0.00 in   Mostly Cloudy
2:53 PM 37.9 °F 30.5 °F 34.0 °F 86% 29.15 in 7.0 mi North 11.5 mph - 0.00 in Rain Rain
3:53 PM 37.0 °F 33.3 °F 35.1 °F 93% 29.12 in 10.0 mi NNW 4.6 mph - 0.03 in Rain Light Rain
4:53 PM 35.1 °F 27.9 °F 34.0 °F 96% 29.13 in 4.0 mi ENE 9.2 mph - 0.04 in Rain Light Rain
5:53 PM 36.0 °F 29.0 °F 35.1 °F 97% 29.13 in 10.0 mi NE 9.2 mph - 0.00 in Rain Light Rain
6:06 PM 35.6 °F 28.0 °F 35.6 °F 100% 29.12 in 10.0 mi NNE 10.4 mph - N/A Rain Light Rain
6:31 PM 35.6 °F 28.6 °F 33.8 °F 93% 29.12 in 6.0 mi NNE 9.2 mph - N/A   Overcast
6:53 PM 36.0 °F 33.3 °F 34.0 °F 93% 29.12 in 6.0 mi Variable 3.5 mph - N/A   Overcast
7:05 PM 35.6 °F - 33.8 °F 93% 29.11 in 10.0 mi Calm Calm - N/A   Overcast
7:53 PM 35.1 °F - 34.0 °F 96% 29.11 in 10.0 mi Calm Calm - 0.01 in   Overcast
8:00 PM 35.6 °F 32.8 °F 33.8 °F 93% 29.10 in 10.0 mi NW 3.5 mph - N/A   Overcast
8:10 PM 35.6 °F 28.0 °F 33.8 °F 93% 29.11 in 8.0 mi NNE 10.4 mph - 0.01 in Rain Light Rain
8:23 PM 35.6 °F 29.9 °F 33.8 °F 93% 29.10 in 10.0 mi NNE 6.9 mph - 0.01 in Rain Light Rain
8:53 PM 36.0 °F 29.6 °F 34.0 °F 93% 29.10 in 10.0 mi NNE 8.1 mph - 0.01 in Rain Light Rain
9:53 PM 35.1 °F 30.1 °F 33.1 °F 92% 29.09 in 10.0 mi North 5.8 mph - 0.02 in Rain Light Rain
10:53 PM 35.1 °F 29.3 °F 34.0 °F 96% 29.09 in 10.0 mi Variable 6.9 mph - 0.00 in   Overcast
11:53 PM 34.0 °F 29.8 °F 33.1 °F 96% 29.08 in 10.0 mi West 4.6 mph - 0.00 in   Overcast